Regional Weather Roundup
Issued by NWS

Home | Current Version | Previous Version | Graphics & Text | Print | Product List | Glossary On
Versions: 1 2 3 4 5 6 7 8 9 10 11 12 13 14 15 16 17 18 19 20 21 22 23 24 25 26 27 28 29 30 31 32 33 34 35 36 37 38 39 40 41 42 43 44 45 46 47 48 49 50
000
ASUS43 KFSD 271002
RWRSD

WEATHER ROUNDUP FOR SOUTH DAKOTA
NATIONAL WEATHER SERVICE SIOUX FALLS SD
500 AM CDT SAT MAY 27 2017

NOTE: "FAIR" INDICATES FEW OR NO CLOUDS BELOW 12,000 FEET WITH NO
SIGNIFICANT WEATHER AND/OR OBSTRUCTIONS TO VISIBILITY.


SDZ001>005-009-010-012>017-271100-
NORTHWEST AND NORTH CENTRAL SOUTH DAKOTA

CITY           SKY/WX    TMP DP  RH WIND       PRES   REMARKS
BUFFALO          N/A     43  37  79 W8        29.88S
FAITH            N/A     51  46  83 SW10      29.93F
MOBRIDGE       CLOUDY    54  41  61 NW5       29.87R
$$

SDZ012>016-024>037-041>051-057-063-072>074-271100-
SOUTHWEST AND SOUTH CENTRAL SOUTH DAKOTA

CITY           SKY/WX    TMP DP  RH WIND       PRES   REMARKS
RAPID CTY ARPT MOCLDY    48  45  89 W6        29.97S
PIERRE         CLOUDY    57  45  64 NW7       29.90S
CUSTER         CLOUDY    42  38  85 W5        30.01S
ELLSWORTH AFB  MOCLDY    48  48 100 W9        29.97R
PHILIP         RAIN      51  51 100 SW3       29.96R FOG
PINE RIDGE     CLOUDY    50  50 100 W3        30.01R
SPEARFISH      FAIR      46  41  81 W5        30.00S
WINNER         CLOUDY    55  51  86 SW5       29.94R
$$

SDZ004>011-016>023-039-040-271100-
NORTHEAST SOUTH DAKOTA

CITY           SKY/WX    TMP DP  RH WIND       PRES   REMARKS
ABERDEEN       CLOUDY    50  43  77 S3        29.87F
WATERTOWN      CLOUDY    50  45  83 CALM      29.88F
BROOKINGS      CLOUDY    53  49  86 SE3       29.89F
SISSETON         N/A     55  46  71 SW5       29.85F
$$

SDZ017-020-022-023-036>040-048>070-271100-
SOUTHEAST SOUTH DAKOTA

CITY           SKY/WX    TMP DP  RH WIND       PRES   REMARKS
SIOUX FALLS    CLOUDY    52  49  89 N3        29.90S
HURON          CLOUDY    55  51  86 S5        29.88S
CHAMBERLAIN    CLOUDY    58  49  72 W6        29.92S
MITCHELL       CLOUDY    57  48  72 CALM      29.90F
YANKTON        CLOUDY    56  50  80 W9        29.93R
$$

ABBREVIATIONS USED IN REMARKS
   TC - TEMPERATURE IN CELSIUS
  WCI - WIND CHILL INDEX
   HX - HEAT INDEX
  VSB - VISIBILITY





USA.gov is the U.S. government's official web portal to all federal, state and local government web resources and services.